Location: Olsztyn
(53.7767°N, 20.4765°E)
Time: 09:35:27
(UTC+01:00)

Envisat - Visible Passes

Search period start: 24 February 2024 00:00
Search period end: 05 March 2024 00:00
Orbit: 762 x 764 km, 98.3° (Epoch: 23 February)

Date Brightness Start Highest point End Pass type
(mag) Time Alt. Az. Time Alt. Az. Time Alt. Az.
24 Feb 5.5 01:49:10 10° NE 01:51:18 16° ENE 01:51:18 16° ENE visible
24 Feb 3.1 03:27:02 10° NNE 03:31:29 68° NNE 03:31:29 68° NNE visible
24 Feb 4.4 05:06:59 10° N 05:10:30 19° NW 05:11:39 18° WNW visible
25 Feb 4.0 02:49:49 10° NNE 02:53:53 44° ENE 02:53:53 44° ENE visible
25 Feb 3.7 04:29:07 10° N 04:33:36 32° WNW 04:34:03 32° WNW visible
26 Feb 5.0 02:12:56 10° NE 02:16:17 25° ENE 02:16:17 25° ENE visible
26 Feb 3.0 03:51:31 10° N 03:56:28 59° WNW 03:56:28 59° WNW visible
26 Feb 4.8 05:32:04 10° NNW 05:34:32 14° NW 05:36:38 11° WNW visible
27 Feb 5.7 01:36:52 10° NE 01:38:42 13° ENE 01:38:42 13° ENE visible
27 Feb 3.1 03:14:08 10° NNE 03:18:52 71° ENE 03:18:52 71° ENE visible
27 Feb 4.2 04:53:50 10° N 04:57:45 23° NW 04:59:02 21° WNW visible
28 Feb 4.2 02:37:01 10° NNE 02:41:17 38° E 02:41:17 38° E visible
28 Feb 3.5 04:16:05 10° N 04:20:47 39° WNW 04:21:27 38° W visible
29 Feb 5.1 02:00:19 10° NE 02:03:41 21° E 02:03:41 21° E visible
29 Feb 2.8 03:38:34 10° NNE 03:43:39 73° WNW 03:43:51 72° W visible
29 Feb 4.6 05:18:45 10° NNW 05:21:50 16° NW 05:24:01 13° W visible
01 Mar 5.8 01:25:14 10° ENE 01:26:05 10° E 01:26:05 10° E visible
01 Mar 3.3 03:01:16 10° NNE 03:06:15 60° E 03:06:15 60° E visible
01 Mar 4.0 04:40:45 10° N 04:44:59 27° WNW 04:46:26 24° W visible
02 Mar 4.5 02:24:15 10° NNE 02:28:40 31° E 02:28:40 31° E visible
02 Mar 3.2 04:03:05 10° N 04:07:58 48° WNW 04:08:50 43° W visible
02 Mar 4.9 05:44:09 10° NNW 05:45:51 12° NW 05:47:31 10° WNW visible
03 Mar 5.3 01:47:48 10° NE 01:51:03 17° E 01:51:04 17° E visible
03 Mar 2.8 03:25:38 10° NNE 03:30:45 89° WNW 03:31:15 74° SSW visible
03 Mar 4.4 05:05:34 10° N 05:09:07 19° NW 05:11:25 15° W visible
04 Mar 3.7 02:48:25 10° NNE 02:53:22 48° E 02:53:39 48° ESE visible
04 Mar 3.8 04:27:41 10° N 04:32:12 33° WNW 04:33:49 27° W visible
